Kissimmee, FL

11:21 AM EST on December 13, 2019 (GMT -0500)
Kissimmee Municipal

Weather History for KISM - November, 2019

Change the Weather History Date:

Saturday, November 16, 2019

  Actual Average Record
Temperature  
Mean Temperature 58 °F -  
Max Temperature 64 °F 78 °F 88 °F (1988)
Min Temperature 51 °F 56 °F 36 °F (1969)
Degree Days  
Heating Degree Days 8    
Growing Degree Days 8 (Base 50)    
Moisture  
Dew Point 52 °F    
Average Humidity 81    
Maximum Humidity 94    
Minimum Humidity 64    
Precipitation  
Precipitation 0.00 in - - ()
Sea Level Pressure  
Sea Level Pressure 29.91 in    
Wind  
Wind Speed 11 mph (NW)    
Max Wind Speed 15 mph    
Max Gust Speed 21 mph    
Visibility 10 miles    
Events      
Averages and records for this station are not official NWS values.
T = Trace of Precipitation, MM = Missing Value Source: NWS Daily Summary

Daily Weather History Graph

Daily Weather History Graph

Search for Another Location

Airport or City:

Astronomy

Nov. 16, 2019 Rise Set
Actual Time 6:48 AM EST 5:32 PM EST
Civil Twilight 6:23 AM EST 5:57 PM EST
Nautical Twilight 5:55 AM EST 6:25 PM EST
Astronomical Twilight 5:27 AM EST 6:53 PM EST
Moon 9:11 PM EST (11/16) 10:32 AM EST (11/16)
Length of Visible Light 11h 33m
Length of Day
10h 43m
Waning Gibbous, 82% of the Moon is Illuminated
Nov 16
Waning Gibbous
Nov 19
Last Quarter
Nov 26
New
Dec 4
First Quarter
Dec 12
Full

Hourly Weather History & Observations

Time (EST) Temp. Dew Point Humidity Pressure Visibility Wind Dir Wind Speed Gust Speed Precip Events Conditions
12:56 AM 59.0 °F 55.9 °F 90% 29.93 in 10.0 mi WNW 12.7 mph - N/A   Overcast
1:56 AM 57.0 °F 55.0 °F 93% 29.93 in 10.0 mi WNW 9.2 mph - N/A   Overcast
2:25 AM 57.2 °F 53.6 °F 88% 29.92 in 10.0 mi NW 10.4 mph - N/A   Overcast
2:56 AM 57.0 °F 53.1 °F 87% 29.91 in 10.0 mi NW 9.2 mph - N/A   Overcast
3:56 AM 57.0 °F 53.1 °F 87% 29.90 in 10.0 mi WNW 6.9 mph - N/A   Overcast
4:56 AM 57.0 °F 53.1 °F 87% 29.90 in 10.0 mi NW 9.2 mph - N/A   Overcast
5:25 AM 55.4 °F 53.6 °F 94% 29.90 in 10.0 mi NW 11.5 mph - N/A   Overcast
5:56 AM 55.9 °F 53.1 °F 90% 29.91 in 10.0 mi WNW 9.2 mph - N/A   Overcast
6:35 AM 55.4 °F 51.8 °F 88% 29.91 in 10.0 mi WNW 8.1 mph - N/A   Mostly Cloudy
6:56 AM 55.0 °F 52.0 °F 89% 29.92 in 10.0 mi West 8.1 mph - N/A   Mostly Cloudy
7:56 AM 55.9 °F 53.1 °F 90% 29.92 in 10.0 mi WNW 9.2 mph - N/A   Mostly Cloudy
8:56 AM 59.0 °F 53.1 °F 81% 29.93 in 10.0 mi NW 11.5 mph - N/A   Partly Cloudy
9:56 AM 61.0 °F 52.0 °F 72% 29.92 in 10.0 mi NW 15.0 mph - N/A   Mostly Cloudy
10:17 AM 60.8 °F 51.8 °F 72% 29.92 in 10.0 mi NW 13.8 mph 20.7 mph N/A   Overcast
10:56 AM 62.1 °F 52.0 °F 70% 29.91 in 10.0 mi NW 15.0 mph - N/A   Overcast
11:56 AM 63.0 °F 52.0 °F 67% 29.90 in 10.0 mi WNW 12.7 mph - N/A   Mostly Cloudy
12:40 PM 64.4 °F 51.8 °F 64% 29.88 in 10.0 mi NW 13.8 mph 20.7 mph N/A   Unknown
12:56 PM 63.0 °F 52.0 °F 67% 29.89 in 10.0 mi NNW 15.0 mph - N/A   Unknown
1:04 PM 62.6 °F 51.8 °F 68% 29.89 in 10.0 mi NW 12.7 mph - N/A   Overcast
1:56 PM 61.0 °F 51.1 °F 70% 29.88 in 10.0 mi NNW 13.8 mph 18.4 mph N/A   Overcast
2:56 PM 61.0 °F 52.0 °F 72% 29.88 in 10.0 mi NW 13.8 mph - N/A   Overcast
3:56 PM 59.0 °F 51.1 °F 75% 29.88 in 10.0 mi North 11.5 mph - N/A   Overcast
4:56 PM 55.9 °F 50.0 °F 80% 29.89 in 10.0 mi NW 12.7 mph - N/A   Overcast
5:56 PM 55.0 °F 50.0 °F 83% 29.91 in 10.0 mi NNW 12.7 mph 20.7 mph N/A   Overcast
6:56 PM 55.0 °F 50.0 °F 83% 29.92 in 10.0 mi North 13.8 mph - N/A   Overcast
7:56 PM 54.0 °F 48.9 °F 83% 29.95 in 10.0 mi North 13.8 mph - N/A   Overcast
9:56 PM 52.0 °F 48.0 °F 86% 29.97 in 10.0 mi NNW 11.5 mph - N/A   Overcast
10:03 PM 51.8 °F 48.2 °F 88% 29.96 in 10.0 mi NNW 12.7 mph - N/A   Unknown
10:56 PM 52.0 °F 48.0 °F 86% 29.97 in 10.0 mi North 8.1 mph - N/A   Unknown
11:56 PM 52.0 °F 48.0 °F 86% 29.95 in 10.0 mi NNW 6.9 mph - N/A   Unknown